Location: ?????
(37.7324°N, 23.9257°E)
Time: 21:20:24
(UTC+00:00)

SKYMED 2 - Pass Details

Date: 29 November 2020
Orbit: 621 x 623 km, 97.9° (Epoch: 19 January)

Event Time Altitude Azimuth Distance (km) Brightness Sun altitude
Rises 04:07:21 0° 183° (S) 2,887 7.2 -14.0°
Reaches altitude 10° 04:09:38 10° 190° (S) 1,985 6.2 -13.6°
Maximum altitude 04:13:43 42° 261° (W) 899 4.0 -12.8°
Drops below altitude 10° 04:17:51 10° 333° (NNW) 2,000 5.8 -12.0°
Enters shadow 04:18:45 - 336° (NNW) 2,348 6.1 -11.8°
